EW1148 Weather Reports


time (UTC)temp
C
wind
direction
speed
KPH
gust
KPH
rain 1hr
cm
rain 24hr
cm
rain mn
cm
humidity
%
barometer
mb
20260906093006 18 22 0.0 6.4 0.00 0.30 0.00 87 1016.8
20260906092504 18 45 0.0 6.4 0.00 0.30 0.00 87 1016.5
20260906092005 18 45 0.0 1.6 0.00 0.33 0.00 87 1016.5
20260906091502 18 22 0.0 16.1 0.00 0.33 0.00 87 1016.5
20260906091005 18 45 0.0 16.1 0.00 0.33 0.00 87 1016.5
20260906090508 18 22 1.6 9.7 0.00 0.33 0.00 87 1016.5
20260906090004 18 67 0.0 11.3 0.00 0.33 0.00 87 1016.5
20260906085506 18 45 0.0 6.4 0.00 0.33 0.00 87 1016.5
20260906085003 18 67 0.0 6.4 0.00 0.33 0.00 88 1016.5
20260906084506 18 45 0.0 11.3 0.00 0.33 0.00 88 1016.5
20260906084008 18 360 1.6 11.3 0.00 0.33 0.00 88 1016.5
20260906083505 18 360 3.2 11.3 0.00 0.33 0.00 88 1016.5
20260906082507 18 360 1.6 6.4 0.00 0.33 0.00 88 1016.5
20260906082004 18 45 0.0 6.4 0.00 0.33 0.00 88 1016.5
20260906081507 18 360 3.2 12.9 0.00 0.33 0.00 88 1016.1
20260906080503 18 22 1.6 8.0 0.00 0.33 0.00 88 1016.5
20260906080006 18 45 6.4 11.3 0.00 0.33 0.00 88 1016.5
20260906075503 18 45 1.6 11.3 0.00 0.33 0.00 89 1016.5
20260906074007 18 360 4.8 6.4 0.00 0.33 0.00 89 1016.5
20260906073004 18 67 1.6 11.3 0.00 0.33 0.00 89 1016.5
20260906072504 18 90 1.6 8.0 0.00 0.33 0.00 90 1016.1
20260906071502 18 90 0.0 8.0 0.00 0.33 0.00 90 1016.1
20260906071004 18 45 0.0 8.0 0.00 0.33 0.00 90 1016.5
20260906070506 18 22 1.6 8.0 0.00 0.33 0.00 91 1016.5
20260906070008 18 45 3.2 9.7 0.00 0.33 0.00 91 1016.5
20260906065503 18 67 0.0 9.7 0.00 0.33 0.00 92 1016.5
20260906065005 18 22 4.8 9.7 0.00 0.33 0.00 92 1016.5
20260906064002 18 45 0.0 6.4 0.00 0.33 0.00 93 1016.5
20260906063504 18 45 0.0 6.4 0.00 0.33 0.00 93 1016.5
20260906063007 18 67 0.0 6.4 0.00 0.33 0.00 93 1016.5
20260906062503 18 45 3.2 4.8 0.00 0.33 0.00 93 1016.5
20260906062006 19 45 1.6 3.2 0.00 0.33 0.00 93 1016.5
20260906061502 19 45 0.0 6.4 0.00 0.33 0.00 93 1016.5
20260906061004 19 22 3.2 6.4 0.00 0.33 0.00 93 1016.5
20260906060506 19 360 1.6 6.4 0.00 0.33 0.00 93 1016.5
20260906060002 19 22 0.0 11.3 0.00 0.33 0.00 93 1016.5
20260906055505 20 90 1.6 11.3 0.00 0.33 0.00 93 1016.8
20260906055007 20 90 3.2 11.3 0.00 0.33 0.00 93 1016.5
20260906054508 20 22 3.2 6.4 0.00 0.33 0.00 93 1016.5
20260906054003 20 360 1.6 6.4 0.00 0.33 0.00 93 1016.5
20260906053007 20 90 0.0 6.4 0.00 0.33 0.00 93 1016.1
20260906052503 20 22 1.6 6.4 0.00 0.33 0.00 93 1016.1
20260906052005 20 67 0.0 4.8 0.00 0.33 0.00 93 1016.1
20260906051502 20 360 0.0 11.3 0.00 0.33 0.00 93 1015.8
20260906051005 20 22 1.6 11.3 0.00 0.33 0.00 93 1015.8
20260906050507 20 45 1.6 6.4 0.00 0.33 0.00 93 1015.8
20260906050003 20 67 0.0 11.3 0.00 0.33 0.00 93 1015.8
20260906045505 20 90 1.6 11.3 0.00 0.33 0.00 93 1015.8
20260906044503 20 67 0.0 16.1 0.00 0.33 0.00 93 1015.4
20260906044006 21 67 0.0 16.1 0.00 0.33 0.00 93 1015.4
20260906043508 21 67 1.6 16.1 0.00 0.33 0.00 93 1015.4
20260906043004 21 45 1.6 11.3 0.00 0.33 0.00 94 1015.4
20260906042506 21 67 1.6 11.3 0.00 0.33 0.00 94 1015.4
20260906042003 21 22 1.6 9.7 0.00 0.33 0.00 94 1015.4
20260906041006 21 67 1.6 12.9 0.00 0.33 0.00 94 1015.4
20260906040507 21 22 4.8 12.9 0.00 0.33 0.00 94 1015.4
20260906040004 22 67 1.6 14.5 0.00 0.33 0.00 94 1015.4
20260906035506 22 360 6.4 14.5 0.00 0.33 0.33 94 1015.1
20260906035003 22 45 3.2 9.7 0.00 0.33 0.33 94 1015.4
20260906034506 22 22 3.2 14.5 0.00 0.33 0.33 94 1015.4
20260906034003 22 22 3.2 14.5 0.00 0.33 0.33 94 1015.4
20260906033506 22 22 3.2 8.0 0.00 0.33 0.33 94 1015.4
20260906033003 22 45 3.2 12.9 0.00 0.33 0.33 94 1015.4
20260906032505 22 67 3.2 12.9 0.00 0.33 0.33 94 1015.4
20260906031005 22 67 1.6 11.3 0.00 0.33 0.33 93 1015.4
20260906030501 22 45 3.2 11.3 0.00 0.33 0.33 93 1015.4
20260906030004 22 67 1.6 12.9 0.00 0.33 0.33 93 1015.4
20260906025508 22 67 1.6 9.7 0.00 0.33 0.33 93 1015.4
20260906025005 22 90 1.6 6.4 0.00 0.33 0.33 93 1015.4
20260906024507 22 45 3.2 9.7 0.00 0.33 0.33 93 1015.4
20260906024004 22 22 1.6 9.7 0.00 0.33 0.33 92 1015.4
20260906023507 22 22 1.6 8.0 0.00 0.33 0.33 92 1015.4
20260906023004 22 360 0.0 6.4 0.00 0.33 0.33 92 1015.8
20260906022539 22 67 0.0 1.6 0.00 0.33 0.33 92 1015.4
20260906022003 22 67 0.0 1.6 0.00 0.33 0.33 92 1015.4
20260906021506 22 67 0.0 6.4 0.00 0.33 0.33 91 1015.4
20260906020004 23 67 3.2 6.4 0.00 0.33 0.33 91 1015.4
20260906015505 23 90 0.0 6.4 0.00 0.33 0.33 91 1015.4
20260906015005 23 45 3.2 4.8 0.00 0.33 0.33 91 1015.4
20260906014507 23 45 3.2 8.0 0.00 0.33 0.33 90 1015.1
20260906014004 23 90 0.0 4.8 0.00 0.33 0.33 90 1015.1
20260906013003 23 45 3.2 8.0 0.00 0.33 0.33 90 1015.1
20260906012506 23 90 1.6 8.0 0.00 0.33 0.33 90 1014.8
20260906012003 23 45 1.6 6.4 0.00 0.33 0.33 89 1014.8
20260906011506 23 90 3.2 9.7 0.00 0.33 0.33 89 1014.8
20260906011003 24 90 3.2 9.7 0.00 0.33 0.33 89 1014.8
20260906010505 24 67 1.6 9.7 0.00 0.33 0.33 89 1014.8
20260906010001 24 67 4.8 14.5 0.00 0.33 0.33 89 1014.8
20260906005005 24 45 1.6 14.5 0.00 0.33 0.33 90 1014.8
20260906004507 24 45 1.6 17.7 0.00 0.33 0.33 90 1014.4
20260906003505 24 90 8.0 17.7 0.00 0.33 0.33 90 1014.1
20260906003002 25 67 4.8 16.1 0.00 0.33 0.33 90 1014.1
20260906002504 25 90 0.0 9.7 0.00 0.33 0.33 90 1014.4
20260906001506 24 67 4.8 12.9 0.00 0.33 0.33 89 1014.1
20260906001002 24 90 1.6 9.7 0.00 0.33 0.33 89 1014.1
20260906000504 23 45 1.6 4.8 0.00 0.33 0.33 89 1014.1
20260906000007 23 67 1.6 3.2 0.00 0.33 0.33 88 1014.1
20260905235504 23 112 0.0 0.0 0.00 0.33 0.33 88 1014.1
20260905235006 23 135 0.0 0.0 0.00 0.33 0.33 88 1014.1
20260905234502 23 180 0.0 4.8 0.00 0.33 0.33 87 1014.1
20260905234005 23 225 0.0 4.8 0.00 0.33 0.33 87 1014.1
20260905233502 23 225 0.0 4.8 0.00 0.33 0.33 86 1014.1
20260905233004 23 180 3.2 3.2 0.00 0.33 0.33 86 1014.1
20260905232507 23 90 0.0 3.2 0.00 0.33 0.33 86 1014.1
20260905232003 23 90 0.0 3.2 0.00 0.33 0.33 86 1014.1
20260905231505 23 337 1.6 6.4 0.00 0.33 0.33 86 1014.4
20260905231008 23 292 3.2 4.8 0.00 0.33 0.33 86 1014.1
20260905230503 23 360 0.0 0.0 0.00 0.33 0.33 85 1014.1
20260905230006 23 360 0.0 0.0 0.00 0.33 0.33 85 1014.1
20260905225505 23 360 0.0 0.0 0.00 0.33 0.33 85 1014.1
20260905225007 23 315 0.0 0.0 0.00 0.33 0.33 84 1014.1
20260905224503 23 315 0.0 12.9 0.00 0.33 0.33 83 1014.1
20260905224006 23 315 0.0 12.9 0.00 0.33 0.33 83 1014.1
20260905223503 23 270 6.4 12.9 0.00 0.33 0.33 83 1014.1
20260905222506 24 270 4.8 6.4 0.00 0.33 0.33 81 1013.8
20260905222008 25 90 0.0 6.4 0.00 0.33 0.33 82 1013.8
20260905221504 25 315 8.0 19.3 0.00 0.33 0.33 84 1014.1
20260905221007 26 247 11.3 17.7 0.00 0.33 0.33 84 1013.8
20260905220504 26 22 3.2 4.8 0.00 0.33 0.33 82 1013.8
20260905220007 27 45 3.2 9.7 0.00 0.33 0.33 79 1013.4
20260905215503 27 90 0.0 9.7 0.00 0.30 0.30 77 1013.1
20260905215006 27 67 3.2 4.8 0.00 0.23 0.23 76 1013.8
20260905214503 28 112 3.2 11.3 0.00 0.20 0.20 75 1013.1
20260905214006 28 112 1.6 11.3 0.00 0.20 0.20 74 1012.7
20260905213502 28 67 3.2 9.7 0.00 0.20 0.20 73 1012.7
20260905213005 28 90 3.2 16.1 0.00 0.20 0.20 71 1013.1
20260905212502 28 90 6.4 16.1 0.00 0.20 0.20 69 1013.1
20260905212006 29 45 1.6 8.0 0.00 0.20 0.20 68 1013.1
20260905211502 30 67 4.8 11.3 0.00 0.20 0.20 65 1013.1
20260905210506 30 337 4.8 11.3 0.00 0.20 0.20 63 1013.4
20260905210003 30 270 9.7 17.7 0.00 0.20 0.20 62 1013.1
20260905204504 30 292 8.0 14.5 0.00 0.38 0.20 61 1013.4
20260905204008 31 270 6.4 14.5 0.00 0.43 0.20 60 1013.8
20260905203505 31 315 9.7 14.5 0.00 0.48 0.20 59 1013.4
20260905202504 31 270 4.8 8.0 0.00 0.48 0.20 60 1013.4
20260905202001 31 270 4.8 8.0 0.00 0.48 0.20 60 1013.8
20260905201505 30 292 4.8 17.7 0.00 0.48 0.20 60 1013.8
20260905200006 31 292 9.7 17.7 0.00 0.48 0.20 60 1013.8
20260905195005 31 202 4.8 17.7 0.00 0.48 0.20 60 1014.1
20260905194502 31 247 11.3 17.7 0.00 0.48 0.20 60 1014.1
20260905194005 31 202 4.8 17.7 0.00 0.48 0.20 61 1014.1
20260905193505 31 270 4.8 14.5 0.00 0.48 0.20 62 1014.1
20260905193001 31 225 4.8 11.3 0.00 0.48 0.20 62 1014.4
20260905192505 30 157 6.4 11.3 0.00 0.48 0.20 63 1014.4
20260905192007 30 247 6.4 11.3 0.00 0.48 0.20 64 1014.4
20260905191504 30 292 8.0 14.5 0.00 0.48 0.20 64 1014.4
20260905191007 30 292 8.0 14.5 0.00 0.48 0.20 64 1014.4
20260905190504 30 157 3.2 14.5 0.00 0.48 0.20 64 1014.8
20260905185502 30 292 4.8 16.1 0.00 0.48 0.20 64 1014.8
20260905185005 30 315 8.0 16.1 0.00 0.48 0.20 64 1014.8
20260905184508 29 270 4.8 14.5 0.00 0.48 0.20 64 1014.8
20260905184005 30 315 8.0 14.5 0.00 0.48 0.20 64 1014.8
20260905183502 30 292 6.4 9.7 0.00 0.48 0.20 64 1015.1
20260905183005 30 337 3.2 11.3 0.00 0.48 0.20 64 1014.8
20260905182503 29 292 3.2 11.3 0.00 0.48 0.20 65 1014.8
20260905181507 28 337 6.4 12.9 0.00 0.48 0.20 67 1015.1
20260905181004 28 270 9.7 12.9 0.00 0.48 0.20 67 1015.1
20260905180507 28 270 8.0 11.3 0.00 0.48 0.20 67 1015.1
20260905180004 28 247 3.2 14.5 0.00 0.48 0.20 67 1015.1
20260905175507 28 292 6.4 14.5 0.00 0.48 0.20 67 1015.1
20260905175004 28 270 4.8 11.3 0.00 0.48 0.20 67 1015.1
20260905174507 28 270 3.2 11.3 0.00 0.48 0.20 67 1015.4
20260905174004 28 270 6.4 11.3 0.00 0.48 0.20 69 1015.4
20260905173002 27 45 0.0 8.0 0.00 0.48 0.20 73 1015.1
20260905172505 26 292 3.2 8.0 0.00 0.48 0.20 74 1015.4
20260905172034 26 292 0.0 6.4 0.00 0.48 0.20 75 1015.4
20260905171504 26 315 0.0 17.7 0.00 0.48 0.20 75 1015.8
20260905165507 26 315 6.4 12.9 0.00 0.48 0.20 73 1015.1
20260905165010 26 270 8.0 12.9 0.00 0.48 0.20 72 1014.8
20260905164506 27 225 4.8 14.5 0.00 0.48 0.20 71 1014.8
20260905163504 27 270 8.0 14.5 0.00 0.48 0.20 70 1015.4
20260905163007 27 270 6.4 16.1 0.00 0.48 0.20 70 1015.4
20260905162005 27 292 6.4 16.1 0.00 0.48 0.20 71 1015.4
20260905161502 27 270 12.9 19.3 0.00 0.48 0.20 71 1015.4
20260905161005 26 225 8.0 19.3 0.00 0.48 0.20 70 1015.4
20260905160502 26 270 11.3 16.1 0.00 0.48 0.20 70 1015.4
20260905160005 26 180 3.2 17.7 0.00 0.48 0.20 70 1015.4
20260905155507 27 247 8.0 17.7 0.00 0.48 0.20 70 1015.4
20260905154505 27 202 1.6 17.7 0.00 0.48 0.20 70 1015.4
20260905154002 27 202 3.2 17.7 0.00 0.48 0.20 71 1015.4
20260905153005 26 292 4.8 12.9 0.00 0.48 0.20 72 1015.1
20260905152508 26 270 4.8 11.3 0.00 0.48 0.20 72 1015.4
20260905152004 26 247 3.2 11.3 0.00 0.48 0.20 73 1015.4
20260905151507 26 247 3.2 16.1 0.00 0.48 0.20 75 1015.4
20260905151004 25 247 6.4 16.1 0.00 0.48 0.20 76 1015.4
20260905150506 25 157 4.8 11.3 0.00 0.48 0.20 76 1015.4
20260905150002 25 247 4.8 17.7 0.00 0.48 0.20 77 1015.4
20260905145505 25 247 6.4 17.7 0.00 0.48 0.20 77 1015.1
20260905145008 25 202 3.2 17.7 0.00 0.48 0.20 78 1015.1
20260905144504 25 202 6.4 11.3 0.00 0.48 0.20 79 1015.1
20260905143503 25 247 6.4 11.3 0.00 0.48 0.20 80 1015.4
20260905143006 24 270 3.2 12.9 0.00 0.48 0.20 82 1015.1
20260905142503 24 202 4.8 11.3 0.00 0.48 0.20 83 1015.1
20260905142006 23 247 3.2 11.3 0.00 0.48 0.20 84 1015.1
20260905141506 23 292 3.2 11.3 0.00 0.48 0.20 85 1015.4
20260905141002 23 247 3.2 11.3 0.00 0.48 0.20 86 1015.4
20260905140505 23 180 4.8 8.0 0.00 0.48 0.20 88 1015.1
20260905140007 22 202 4.8 9.7 0.00 0.48 0.20 90 1015.1
20260905135504 22 180 0.0 9.7 0.00 0.48 0.20 91 1015.1
20260905134003 21 135 3.2 11.3 0.00 0.48 0.20 94 1015.8
20260905133506 21 180 4.8 11.3 0.00 0.48 0.20 95 1015.8
20260905133002 20 202 1.6 12.9 0.00 0.48 0.20 96 1015.8
20260905132505 20 202 3.2 12.9 0.00 0.48 0.20 96 1016.1
20260905131004 20 180 1.6 9.7 0.00 0.48 0.20 97 1016.5
20260905130507 20 180 3.2 9.7 0.00 0.48 0.20 97 1016.5
20260905130004 20 135 0.0 0.0 0.00 0.48 0.20 97 1016.8
20260905125505 20 135 0.0 0.0 0.00 0.48 0.20 97 1016.8
20260905125007 20 157 0.0 0.0 0.00 0.48 0.20 97 1016.8
20260905124502 20 157 0.0 0.0 0.00 0.48 0.20 97 1016.8
20260905124004 20 135 0.0 0.0 0.00 0.48 0.20 97 1016.8
20260905123507 20 135 0.0 0.0 0.00 0.48 0.20 97 1016.8
20260905123003 20 135 0.0 0.0 0.00 0.48 0.20 97 1016.5
20260905122505 20 135 0.0 0.0 0.00 0.48 0.20 97 1016.5
20260905122008 20 135 0.0 0.0 0.00 0.48 0.20 96 1016.5
20260905120007 19 90 0.0 4.8 0.00 0.48 0.20 96 1016.5
20260905115509 19 90 0.0 4.8 0.00 0.48 0.20 96 1016.5
20260905114006 19 90 0.0 0.0 0.00 0.48 0.20 96 1016.8
20260905113503 19 67 0.0 0.0 0.00 0.48 0.20 96 1017.1
20260905113005 19 67 0.0 6.4 0.00 0.48 0.20 96 1017.1
20260905112007 19 90 0.0 6.4 0.00 0.48 0.20 96 1017.5
20260905111504 19 337 4.8 9.7 0.00 0.48 0.20 96 1017.8
20260905111005 19 45 0.0 9.7 0.00 0.48 0.20 96 1017.1
20260905110507 19 90 1.6 9.7 0.00 0.48 0.20 95 1017.1
20260905110003 19 292 3.2 12.9 0.00 0.48 0.20 95 1017.1
20260905105506 19 22 4.8 12.9 0.00 0.48 0.20 95 1017.5
20260905105002 19 67 3.2 11.3 0.00 0.48 0.20 95 1017.5
20260905104505 20 22 6.4 12.9 0.00 0.48 0.20 95 1017.5
20260905104002 20 67 3.2 12.9 0.00 0.46 0.18 95 1017.1
20260905103505 20 112 1.6 12.9 0.00 0.41 0.13 95 1017.1
20260905103007 20 67 3.2 17.7 0.00 0.33 0.05 94 1017.1
20260905102503 20 90 3.2 17.7 0.00 0.33 0.05 94 1017.5
20260905102005 20 45 0.0 9.7 0.00 0.33 0.05 94 1017.8
20260905101502 20 90 0.0 16.1 0.00 0.33 0.05 94 1017.5
20260905101005 20 45 0.0 16.1 0.00 0.33 0.05 94 1017.8
20260905100508 20 67 8.0 16.1 0.00 0.33 0.05 93 1017.5
20260905100004 20 90 4.8 30.6 0.00 0.33 0.05 93 1017.8
20260905095507 20 67 1.6 30.6 0.00 0.33 0.05 92 1017.8
20260905095004 20 90 6.4 30.6 0.00 0.30 0.03 92 1017.8
20260905094006 20 22 8.0 27.4 0.00 0.30 0.03 91 1017.8
20260905093503 21 22 4.8 27.4 0.00 0.30 0.03 91 1017.8